Vorticity
5 12 19 8 14 14 19 19 13 15 20 18 21 6 17 19 9 5 5 8 8 14 17 17 16 13 11 12 10 10 9 9 12 7 9 7 9 7 3 10 11 2 11
11 1 9 12 22 20 20 15 13 24 10 8 12 24 11 6 7 6 7 9 15 15 14 10 11 14 14 11 10 10 9 8 11 7 11 12 11 9 9 9 11 15 2
4 11 13 25 14 17 17 18 12 7 12 25 7 8 8 9 7 10 14 13 14 10 9 10 11 12 11 11 9 8 9 12 12 13 12 11 12 12 14 11 13 16 19
13 13 19 15 12 17 9 16 10 8 14 6 5 8 8 11 13 12 14 11 7 7 12 15 14 12 11 11 11 11 10 10 10 11 9 9 8 10 11 15 9 7 13
18 12 2 20 12 8 12 11 11 10 7 4 5 7 12 12 11 10 7 8 13 14 12 10 9 9 9 9 10 11 14 17 17 17 18 14 12 10 6 6 12 9 10
9 7 24 4 9 7 38 4 17 5 3 6 9 12 11 11 7 10 15 14 9 8 10 13 13 15 19 22 21 19 18 17 18 19 16 17 15 14 11 7 4 11 11
11 13 19 11 5 16 4 12 8 6 9 11 13 10 9 9 16 13 10 8 10 9 17 22 23 21 17 16 16 15 14 14 13 15 16 13 14 14 18 14 4 -14 12
26 17 13 24 12 16 9 6 9 8 14 10 10 9 13 15 11 9 12 8 16 24 19 15 13 14 14 12 12 13 15 17 13 10 12 16 16 17 18 17 18 9 3
15 16 17 7 6 5 8 8 12 12 9 12 9 12 13 11 10 12 9 22 21 15 14 13 13 14 15 16 16 15 17 13 15 19 14 11 12 13 12 20 16 20 13
17 9 5 -1 0 8 10 13 10 8 11 9 11 11 13 9 10 13 28 16 13 11 14 14 17 18 17 16 16 17 14 20 13 14 17 19 19 15 13 13 13 18 23
10 11 5 2 10 14 13 10 9 10 10 11 11 13 11 10 16 25 17 13 14 13 16 22 26 30 25 20 18 17 19 29 16 10 10 13 16 20 18 16 16 11 17
1 10 8 12 14 13 10 10 11 12 11 11 13 14 11 17 27 17 17 11 13 11 16 24 19 16 16 17 17 16 16 18 19 15 12 10 11 13 13 19 25 20 13
7 10 12 14 13 9 8 9 13 11 10 9 16 12 11 30 17 17 11 9 13 14 11 12 22 21 14 14 12 11 15 18 18 18 18 16 16 12 14 14 27 26 24
11 11 13 12 9 9 9 13 12 11 10 11 16 10 18 25 16 10 11 14 12 14 18 14 14 19 23 17 14 16 16 22 21 23 22 18 29 20 12 30 13 10 20
10 13 11 8 10 9 12 14 10 12 9 13 14 10 24 13 11 9 10 10 7 12 16 19 20 30 29 19 15 17 20 27 26 24 25 27 35 19 24 8 4 3 35
11 10 11 13 8 12 12 11 10 12 12 17 13 11 24 11 9 9 11 9 9 10 12 16 24 33 19 12 13 16 17 15 16 17 21 28 27 23 22 8 6 7 21
8 12 15 8 11 15 11 9 11 13 14 17 13 17 19 14 10 9 8 7 9 12 10 10 19 34 20 14 9 10 11 10 14 16 25 8 -4 10 27 12 9 4 15
8 10 11 13 16 11 10 10 12 12 13 21 13 20 14 15 11 11 8 6 8 8 10 8 11 24 30 15 12 10 10 14 12 8 15 5 -9 4 -3 16 2 3 17
9 12 15 17 14 10 9 13 11 12 14 20 13 21 14 15 11 10 7 6 5 5 8 9 8 11 17 28 23 17 16 12 10 11 6 5 8 15 18 19 3 8 18
13 16 17 13 11 10 13 12 13 12 17 20 13 21 14 15 10 13 11 6 4 5 5 10 9 8 8 14 16 21 24 24 22 18 16 12 15 21 21 19 21 20 21
14 17 17 13 10 13 13 12 15 13 18 16 14 19 12 18 11 12 11 8 6 5 5 9 11 9 9 8 8 9 10 15 23 31 34 31 22 14 7 5 12 19 16
13 17 14 10 14 14 12 13 16 14 19 12 17 18 11 13 12 10 11 10 9 6 6 8 10 12 10 8 9 9 11 9 8 10 15 22 33 34 24 17 17 8 9
13 13 11 13 13 11 14 14 15 16 15 11 22 17 17 10 13 11 10 10 9 8 7 8 7 9 10 10 10 9 8 8 10 11 11 11 13 19 31 29 22 17 14
18 10 11 14 9 11 15 14 14 14 11 12 11 21 21 12 10 12 11 10 9 8 8 9 9 8 7 6 6 6 6 7 7 8 8 9 10 11 12 16 23 31 31
11 10 13 12 7 11 15 13 16 12 15 11 14 23 17 24 9 9 11 10 10 9 10 11 10 8 10 12 13 13 14 14 14 13 12 10 9 8 8 10 11 10 10
10 11 12 11 8 11 14 13 14 15 16 12 16 10 27 18 22 12 10 11 11 11 13 12 10 11 11 9 8 8 7 7 7 7 7 7 7 8 9 10 10 11 11
Height
3038 3033 3029 3024 3017 3011 3007 3003 2998 2996 2991 2989 2985 2981 2978 2974 2972 2969 2967 2964 2960 2956 2954 2950 2948 2946 2944 2943 2942 2941 2940 2939 2932 2933 2936 2938 2940 2944 2949 2951 2954 2959 2962
3026 3020 3014 3008 3003 2999 2995 2992 2989 2986 2982 2978 2974 2970 2967 2964 2961 2958 2954 2951 2946 2942 2939 2937 2934 2934 2932 2930 2929 2928 2927 2926 2923 2915 2919 2922 2924 2928 2932 2936 2939 2941 2947
3015 3008 3001 2996 2991 2987 2983 2981 2979 2976 2972 2968 2964 2961 2958 2954 2950 2946 2942 2936 2932 2929 2927 2924 2921 2919 2918 2917 2916 2915 2914 2913 2912 2907 2905 2908 2910 2914 2917 2922 2925 2928 2932
3003 2996 2989 2985 2981 2978 2974 2971 2969 2966 2962 2959 2955 2952 2948 2944 2939 2933 2928 2923 2919 2916 2912 2909 2906 2904 2902 2901 2900 2900 2899 2897 2896 2894 2892 2894 2895 2900 2902 2906 2910 2915 2918
2992 2985 2981 2977 2972 2968 2964 2962 2961 2957 2954 2950 2946 2942 2936 2932 2926 2920 2914 2910 2905 2901 2898 2895 2893 2890 2888 2885 2883 2882 2881 2880 2879 2879 2877 2879 2882 2886 2889 2893 2895 2901 2904
2983 2977 2971 2967 2964 2961 2959 2957 2953 2949 2946 2941 2936 2931 2925 2920 2914 2909 2902 2896 2892 2888 2884 2881 2877 2874 2872 2870 2868 2866 2865 2863 2863 2863 2862 2863 2867 2872 2876 2880 2884 2887 2892
2973 2969 2965 2962 2959 2954 2950 2947 2945 2941 2937 2932 2926 2920 2915 2909 2903 2897 2891 2885 2879 2874 2870 2865 2861 2860 2858 2855 2854 2853 2852 2851 2850 2851 2849 2851 2853 2858 2864 2867 2873 2877 2878
2963 2960 2957 2954 2950 2947 2945 2942 2938 2933 2928 2922 2916 2911 2904 2899 2893 2886 2880 2873 2866 2861 2857 2853 2849 2847 2846 2843 2840 2838 2838 2839 2840 2839 2838 2842 2843 2846 2849 2853 2859 2862 2866
2956 2954 2950 2947 2946 2942 2938 2934 2929 2923 2919 2913 2907 2901 2894 2889 2883 2875 2867 2860 2855 2851 2848 2844 2839 2834 2833 2832 2826 2823 2823 2825 2827 2828 2828 2830 2834 2836 2838 2840 2843 2848 2851
2952 2950 2947 2943 2940 2936 2931 2926 2920 2915 2910 2904 2898 2892 2885 2878 2871 2864 2857 2851 2846 2842 2837 2831 2827 2822 2819 2817 2814 2812 2810 2812 2815 2816 2816 2817 2821 2825 2828 2830 2833 2835 2839
2949 2946 2943 2939 2934 2928 2923 2918 2912 2907 2901 2895 2889 2883 2876 2869 2861 2855 2850 2845 2839 2833 2827 2820 2815 2810 2808 2806 2804 2802 2801 2802 2803 2804 2805 2807 2809 2812 2816 2820 2823 2824 2827
2943 2940 2936 2931 2926 2921 2915 2910 2905 2899 2893 2887 2880 2875 2869 2861 2854 2850 2846 2840 2834 2827 2820 2814 2808 2804 2801 2799 2797 2795 2794 2793 2793 2794 2795 2797 2800 2803 2806 2809 2812 2815 2817
2938 2934 2929 2924 2919 2914 2908 2903 2898 2892 2885 2878 2872 2866 2861 2854 2850 2846 2841 2836 2830 2823 2816 2810 2804 2799 2796 2794 2792 2790 2788 2786 2785 2785 2786 2788 2792 2796 2798 2800 2802 2805 2809
2932 2927 2922 2917 2913 2908 2902 2896 2890 2884 2877 2870 2864 2859 2854 2849 2845 2841 2836 2831 2825 2819 2813 2806 2799 2793 2789 2787 2787 2785 2783 2780 2778 2778 2779 2781 2782 2786 2790 2793 2797 2800 2802
2925 2920 2916 2911 2906 2901 2896 2890 2884 2877 2870 2862 2858 2853 2848 2845 2842 2837 2832 2827 2822 2817 2812 2804 2796 2789 2785 2784 2783 2781 2779 2776 2775 2774 2775 2776 2777 2780 2785 2790 2794 2797 2799
2919 2914 2910 2905 2900 2895 2890 2885 2879 2873 2866 2859 2854 2849 2845 2841 2838 2835 2831 2827 2822 2818 2812 2803 2794 2787 2784 2783 2782 2781 2779 2777 2776 2776 2775 2775 2777 2781 2784 2788 2791 2794 2798
2914 2909 2904 2899 2894 2889 2883 2878 2872 2869 2862 2855 2851 2846 2842 2839 2836 2833 2830 2827 2823 2819 2813 2804 2796 2789 2786 2785 2783 2781 2781 2781 2779 2778 2777 2778 2781 2783 2785 2788 2791 2794 2796
2908 2904 2899 2893 2888 2883 2878 2872 2867 2861 2856 2853 2848 2842 2839 2836 2834 2832 2829 2827 2824 2820 2814 2807 2800 2794 2789 2786 2784 2783 2782 2781 2781 2781 2781 2782 2783 2785 2787 2789 2791 2792 2793
2903 2898 2893 2887 2882 2878 2873 2867 2862 2857 2852 2848 2844 2840 2837 2834 2833 2830 2829 2827 2824 2820 2816 2810 2805 2801 2795 2790 2787 2785 2784 2783 2783 2783 2783 2784 2785 2786 2787 2788 2789 2790 2791
2896 2892 2887 2882 2878 2873 2868 2863 2859 2854 2849 2844 2840 2837 2835 2833 2832 2830 2829 2827 2824 2821 2817 2814 2809 2805 2801 2797 2792 2788 2786 2784 2783 2783 2784 2783 2783 2784 2785 2786 2788 2788 2790
2892 2887 2882 2878 2874 2869 2864 2860 2855 2851 2846 2842 2838 2835 2833 2831 2830 2829 2828 2827 2825 2822 2819 2815 2812 2808 2806 2801 2798 2794 2791 2788 2786 2783 2782 2781 2782 2782 2784 2785 2787 2788 2790
2888 2883 2879 2875 2871 2866 2862 2857 2852 2848 2844 2840 2836 2833 2831 2830 2828 2827 2827 2826 2825 2823 2821 2817 2815 2812 2809 2806 2803 2800 2797 2794 2791 2788 2786 2783 2782 2781 2782 2784 2785 2787 2789
2884 2880 2877 2872 2868 2864 2859 2855 2850 2846 2842 2838 2835 2832 2830 2829 2828 2826 2826 2825 2824 2823 2821 2819 2817 2815 2812 2810 2807 2804 2801 2799 2796 2794 2791 2789 2787 2785 2784 2784 2786 2787 2789
2881 2878 2874 2870 2867 2862 2857 2853 2849 2845 2841 2838 2834 2831 2829 2828 2827 2826 2825 2824 2824 2823 2822 2821 2819 2817 2815 2813 2810 2808 2805 2803 2801 2799 2797 2795 2793 2792 2790 2790 2789 2789 2791
2879 2876 2873 2869 2865 2861 2856 2852 2848 2844 2840 2837 2834 2830 2828 2826 2826 2825 2824 2823 2823 2823 2822 2821 2820 2818 2817 2815 2813 2810 2809 2806 2804 2803 2801 2799 2798 2796 2795 2795 2794 2794 2794
2878 2875 2871 2868 2864 2860 2856 2852 2848 2844 2840 2837 2834 2831 2828 2826 2825 2824 2824 2823 2823 2822 2822 2821 2820 2819 2818 2816 2815 2813 2811 2810 2808 2806 2805 2803 2802 2801 2800 2799 2798 2798 2798